Wind_Speed
17 17 17 16 16 15 14 13 12 12 12 12 12 12 12 12 11 11 11 13 14 14 14 14 14 15 17 18 19 20 20 20 20 21 21 22 23 23 24 25 25 25 24 25 25 26 26 26 27 28 29 29 28 28 29 29 29 28 29 31 32 32 33 34 32 28 30 32 32 32 33 33 34 35 37 39 39 37 36 37 36 36 35 35 35
17 17 17 17 16 15 14 14 14 14 14 14 14 14 13 12 10 10 10 13 14 15 14 14 14 15 17 19 20 21 22 22 22 22 23 24 25 25 26 27 27 27 27 27 27 28 28 28 29 30 31 30 30 30 30 31 31 31 32 33 33 32 33 33 32 31 31 33 34 33 33 33 34 35 39 40 39 37 37 37 37 36 35 35 36
15 15 16 16 15 14 14 15 16 16 17 16 15 14 14 12 11 11 12 14 15 15 15 15 15 16 17 18 20 21 22 23 23 23 23 24 25 25 25 25 25 26 27 28 29 30 30 30 31 31 31 32 32 32 31 32 33 33 33 34 33 32 33 32 31 31 31 33 35 35 33 34 35 36 38 39 38 38 38 38 38 37 35 35 37
16 15 16 16 16 15 15 15 16 17 17 17 16 15 14 12 12 13 15 16 16 16 17 17 17 17 18 19 20 21 22 22 22 22 22 23 23 23 23 24 24 25 26 28 29 30 31 31 31 31 32 32 33 34 34 33 33 33 33 34 33 33 33 33 32 32 32 32 34 36 34 34 35 36 38 38 38 38 39 39 39 39 38 37 38
17 16 17 18 18 17 16 16 17 18 18 18 17 16 14 13 13 14 16 17 17 18 19 19 19 19 19 19 19 19 19 20 21 22 22 23 23 23 23 23 24 25 26 28 29 30 31 31 31 32 33 33 33 34 35 34 33 33 33 33 33 33 33 34 35 35 35 33 33 34 35 35 35 36 37 37 37 38 39 39 39 39 40 40 39
21 20 19 20 20 18 15 15 16 18 18 18 17 16 15 15 15 16 16 17 17 17 17 17 18 18 19 18 18 18 18 19 20 21 21 22 24 24 24 24 24 25 26 27 28 29 29 29 30 32 32 32 31 31 32 32 32 31 32 33 34 34 35 36 37 36 36 35 33 33 35 36 36 35 35 35 36 37 39 39 39 39 39 40 41
24 23 22 22 20 16 14 15 16 17 17 17 17 16 16 16 17 17 18 18 17 15 15 15 16 17 17 17 18 18 19 19 19 20 21 21 22 23 24 24 24 24 24 23 23 23 24 25 26 27 27 27 26 26 27 28 29 30 32 33 35 36 36 37 37 37 36 36 34 33 34 36 37 36 36 37 36 36 38 38 38 38 39 40 41
23 22 22 21 19 16 16 17 17 17 17 17 17 16 17 17 18 19 19 18 17 15 15 15 15 15 15 16 17 18 18 18 18 18 19 19 19 20 20 20 20 20 20 19 18 19 20 21 21 22 22 22 23 23 25 26 27 28 30 30 31 32 33 33 33 33 33 32 32 32 32 34 35 35 36 37 35 36 38 38 37 38 40 41 40
23 21 20 19 17 16 16 17 18 18 18 18 17 17 17 17 17 18 19 18 16 15 14 14 13 13 14 15 16 17 18 18 18 17 18 18 18 18 19 18 18 18 18 17 17 18 19 20 20 20 21 22 22 22 23 24 25 26 27 27 27 27 27 27 28 28 27 28 28 28 29 31 32 32 33 34 34 34 36 36 34 34 36 37 37
21 20 19 19 17 15 16 18 19 19 18 18 18 17 17 17 17 17 16 15 13 12 12 12 13 13 14 15 16 16 17 18 17 17 18 19 19 19 18 18 18 18 17 17 17 18 18 18 19 19 20 20 20 21 21 22 23 24 25 25 25 25 25 25 24 24 25 25 25 24 25 27 28 28 28 29 29 29 30 31 31 30 29 29 30
20 18 18 19 17 16 16 17 18 19 18 18 17 16 16 16 15 15 13 12 11 11 12 13 14 15 15 15 15 15 16 17 17 17 18 18 19 19 18 17 16 16 16 16 16 16 17 17 17 17 18 19 19 19 20 21 21 22 23 24 24 23 23 23 21 21 21 21 21 22 24 24 24 23 22 23 23 24 26 28 28 27 26 25 26
18 17 18 19 18 18 18 17 17 18 18 18 17 16 15 14 14 14 13 12 12 12 13 14 14 15 15 15 14 14 15 16 17 18 18 18 18 18 17 16 15 15 15 15 15 16 16 16 16 17 17 18 19 19 19 20 21 21 22 22 22 22 22 21 20 20 20 19 19 21 21 21 21 22 21 21 22 23 24 26 26 26 25 25 25
18 17 18 19 19 19 19 18 17 17 17 17 16 15 13 13 14 14 14 13 13 14 15 15 15 15 14 14 14 14 15 16 17 18 18 18 18 18 17 16 15 15 15 15 15 16 16 16 17 18 18 19 20 20 21 21 22 23 23 23 23 22 22 22 21 21 21 21 21 21 21 21 22 24 24 23 23 24 24 25 26 26 26 26 26
18 18 19 20 19 18 18 18 17 17 16 16 15 13 11 11 13 14 14 15 15 16 16 15 14 13 13 14 15 15 16 16 17 18 18 17 17 17 17 16 15 15 15 16 16 16 17 17 18 19 20 20 21 21 22 22 22 23 23 23 23 23 23 23 22 22 22 23 23 24 24 24 24 24 25 26 25 25 26 26 27 27 28 28 28
18 19 20 19 18 17 18 18 17 16 15 15 15 13 12 12 13 14 15 15 15 16 15 14 12 12 13 14 15 16 16 16 16 15 15 15 15 16 16 16 16 16 16 17 17 17 17 18 18 19 20 20 21 21 21 21 21 21 22 23 23 23 23 23 23 23 23 23 23 24 25 25 25 25 25 26 26 26 27 27 28 28 29 29 29
17 19 19 18 18 18 18 16 15 14 14 13 12 11 12 13 13 14 14 14 14 14 13 12 12 12 13 14 15 15 15 15 14 13 14 14 15 15 16 16 17 17 17 17 17 17 18 18 19 19 20 20 20 21 21 21 21 22 22 22 22 23 23 24 24 24 23 23 23 24 24 25 25 25 26 26 27 27 27 27 28 28 29 29 29
16 18 19 19 18 17 16 14 13 13 12 11 10 10 12 12 13 13 13 12 12 12 12 12 13 13 13 13 13 14 14 14 13 13 13 14 14 15 15 16 16 17 17 17 18 19 19 20 21 21 22 22 22 23 23 23 23 23 23 23 23 24 24 24 25 25 25 25 25 26 26 26 26 27 27 27 28 28 29 29 29 30 30 30 30
16 18 19 20 18 15 13 12 12 11 11 10 10 10 11 11 12 12 12 12 11 11 12 13 12 12 12 12 13 13 13 13 13 13 13 14 14 15 16 16 17 18 19 20 21 21 22 23 24 24 25 25 26 26 26 26 26 26 26 26 26 26 26 26 26 27 27 27 27 28 28 28 29 29 29 30 30 30 31 31 31 31 32 32 32
15 18 20 20 17 14 13 12 11 11 11 11 10 10 11 11 11 12 12 12 11 12 12 12 11 11 12 12 12 13 13 13 13 13 14 14 15 16 17 18 19 20 21 22 24 24 25 26 26 27 28 28 28 28 28 28 28 28 28 28 28 28 28 28 28 28 28 29 29 29 30 30 31 31 31 31 31 31 31 32 32 33 33 33 34
12 15 18 20 18 16 14 13 12 12 12 11 10 10 11 11 12 12 12 11 11 11 11 10 10 11 11 12 12 13 13 14 14 14 15 15 16 17 18 19 21 22 23 24 26 27 28 29 29 30 30 30 30 30 30 30 30 30 30 30 30 29 29 29 29 29 29 30 30 31 31 32 33 33 33 33 33 33 34 34 34 34 35 35 35
7 10 14 18 18 16 15 14 14 12 11 10 10 11 12 12 12 11 11 10 10 10 10 9 10 10 10 12 13 13 14 14 15 15 16 16 17 18 19 21 22 23 24 25 26 28 29 29 30 30 30 30 31 31 31 31 31 31 32 32 31 31 31 31 31 30 30 31 31 31 32 32 33 33 34 34 34 34 35 36 36 36 36 36 36
8 9 12 15 16 15 15 14 12 10 9 10 11 12 12 12 11 11 10 10 10 10 9 9 9 10 11 12 13 14 14 15 16 16 17 18 19 20 22 23 24 25 25 26 26 27 27 28 28 28 29 29 30 30 31 31 32 32 32 32 32 33 33 33 33 32 32 32 32 33 33 34 34 34 34 34 34 34 35 35 36 36 36 36 36
10 11 12 13 14 14 13 12 11 10 10 11 12 12 12 11 11 11 11 10 10 9 9 9 10 11 12 13 14 15 15 16 17 17 19 20 21 22 23 24 25 26 26 27 27 27 27 27 27 28 28 29 30 31 32 32 33 33 34 34 34 34 34 34 35 35 35 34 35 35 35 35 35 35 35 35 35 35 35 35 36 36 36 36 36
11 11 12 13 12 12 11 10 10 11 11 12 12 12 11 11 11 11 10 10 10 10 10 10 11 12 13 14 15 15 16 17 18 20 21 22 23 24 25 26 26 27 27 27 28 28 28 28 29 29 30 31 32 33 34 35 35 35 35 35 35 35 35 36 36 36 36 36 36 37 36 36 37 36 36 37 37 37 36 36 36 36 36 37 37
11 11 12 12 11 10 9 10 11 12 12 12 12 11 11 11 11 11 11 11 11 11 11 12 13 13 14 15 16 17 18 20 21 22 23 24 25 26 26 27 28 29 29 29 29 29 29 30 30 31 32 33 33 34 35 35 36 36 36 37 37 37 37 38 38 38 38 38 39 38 38 38 39 38 38 38 37 37 37 37 36 36 36 36 37
13 12 11 11 10 10 10 10 11 12 12 12 11 11 11 11 11 12 12 12 13 13 13 14 15 16 17 17 18 20 21 22 23 24 25 26 27 28 29 30 30 30 30 30 30 30 31 31 32 33 33 33 34 34 35 35 35 36 36 37 37 38 38 39 39 39 40 40 40 40 40 40 40 40 39 39 37 37 37 37 37 37 36 36 35
15 14 14 13 13 12 12 11 11 11 11 11 12 12 12 12 13 13 14 14 15 15 16 17 17 18 18 19 20 22 23 24 25 26 28 29 30 31 31 32 32 32 31 32 32 32 32 33 34 34 35 35 36 36 37 37 37 37 37 37 38 38 38 39 39 40 40 40 40 41 41 41 40 40 40 39 38 37 38 39 38 38 38 37 36
18 18 17 16 16 15 14 12 11 11 12 12 12 13 13 14 14 15 15 16 17 18 19 19 19 19 20 21 22 23 25 26 28 29 30 31 31 32 32 32 32 32 32 33 33 33 34 35 35 36 37 38 39 39 39 40 40 40 40 40 40 40 39 39 39 39 39 40 40 41 41 41 41 40 40 40 39 39 39 39 39 39 39 39 39
20 21 22 20 19 18 16 13 11 11 12 13 14 14 15 16 16 16 18 19 20 21 22 22 22 22 22 23 24 26 27 28 29 30 30 30 31 32 32 32 32 32 33 34 35 35 36 37 38 39 40 41 42 42 42 42 42 42 42 42 41 41 40 39 39 38 38 39 39 40 41 41 41 41 41 41 40 40 40 40 40 40 40 40 40
21 22 23 23 22 20 17 14 12 12 13 14 15 16 17 17 17 18 19 21 23 24 24 24 24 24 25 26 27 28 28 28 29 29 30 30 30 31 31 32 33 34 35 36 37 38 39 40 41 42 43 44 44 44 44 44 43 43 42 42 41 41 40 39 38 38 38 38 38 39 40 41 41 42 42 42 42 42 42 41 41 41 41 41 42
22 22 23 24 24 22 19 16 13 13 15 16 17 17 18 18 18 20 21 23 24 25 25 25 25 26 27 28 28 28 28 28 28 29 29 29 29 30 32 33 35 36 37 38 39 40 41 42 43 44 45 45 45 45 44 44 43 42 42 41 41 41 41 40 40 39 39 39 39 39 39 40 41 42 43 43 43 43 44 44 43 44 43 43 44
22 23 23 23 24 24 21 19 17 17 17 17 18 18 19 19 20 21 23 24 25 25 26 26 27 27 27 27 28 28 28 28 28 29 30 30 31 32 33 35 37 38 40 41 41 42 43 44 44 45 45 45 45 45 44 44 43 42 41 41 41 41 41 41 41 41 41 41 41 41 41 41 42 43 43 44 44 45 45 45 46 46 46 46 46
21 24 25 24 25 26 24 22 21 20 19 18 19 20 20 20 21 22 24 25 25 26 27 28 28 27 27 28 29 30 30 30 30 32 32 33 34 35 36 37 39 40 41 42 43 44 44 44 45 45 45 45 44 44 44 43 42 42 41 41 41 41 42 42 42 43 43 43 44 44 44 44 44 44 45 45 45 46 47 47 48 48 48 48 48
19 21 24 24 24 26 26 24 22 21 20 20 21 21 21 21 22 23 24 25 26 28 29 30 29 28 29 30 32 32 32 33 33 34 35 36 36 37 38 39 41 42 43 43 44 44 44 44 44 44 44 44 43 43 42 42 42 41 41 42 42 42 43 44 44 44 45 45 46 46 46 47 47 47 47 48 48 48 49 49 49 50 50 50 50
19 18 22 23 23 24 26 25 23 22 21 22 23 23 23 23 23 23 25 26 28 29 30 30 30 30 31 32 33 33 33 34 35 36 37 37 38 39 40 41 42 42 43 43 43 43 43 42 42 42 42 42 42 42 42 42 42 42 43 43 44 44 45 45 45 46 46 47 47 48 48 49 49 50 50 50 50 51 51 51 51 51 51 51 51
18 18 21 23 24 27 28 26 24 24 24 24 25 25 25 25 25 25 26 27 29 30 30 30 31 31 32 32 33 33 34 35 36 37 38 39 40 41 41 42 42 42 42 42 42 42 42 42 42 42 42 42 42 42 43 43 44 44 45 45 46 46 46 47 47 48 48 49 49 50 50 50 51 51 51 52 52 52 51 51 50 49 48 47 46
20 18 19 21 23 26 26 24 23 24 25 26 27 27 27 28 27 27 27 28 30 31 32 32 33 33 33 33 33 34 35 37 37 38 39 40 40 41 41 42 42 42 42 42 42 42 42 42 42 42 42 43 43 44 44 45 45 46 46 47 47 48 48 49 49 50 50 50 51 51 51 51 51 51 50 49 48 47 46 45 44 43 42 41 41
23 19 17 18 20 22 23 24 24 25 27 28 29 29 30 30 30 29 30 31 31 32 32 33 33 34 34 34 35 36 37 38 39 39 39 40 40 41 41 42 42 42 42 42 41 41 41 41 42 43 43 44 45 45 46 47 47 48 48 49 49 50 50 50 50 51 51 51 50 50 49 48 46 45 44 42 41 40 40 40 40 40 40 40 40
26 23 20 18 18 20 22 24 26 27 29 29 30 30 30 30 30 30 30 31 32 32 32 33 34 35 35 36 36 37 37 38 38 39 39 40 40 41 41 41 40 40 40 40 40 41 41 42 42 43 44 45 46 47 48 49 50 50 51 51 52 52 52 51 51 50 49 47 46 44 43 41 40 40 40 40 40 40 40 41 41 42 42 43 44
26 26 24 21 20 21 23 25 26 27 28 28 28 28 28 27 28 29 30 30 30 31 32 33 35 36 36 36 36 36 36 37 38 39 39 40 39 39 39 39 40 40 40 40 41 42 43 43 44 45 47 48 48 49 50 51 51 51 51 51 50 49 48 46 45 43 41 40 39 38 38 39 39 40 41 41 42 43 43 44 45 45 46 46 47
25 25 24 23 23 24 25 26 26 26 26 27 28 29 29 28 29 29 29 29 29 31 33 35 36 36 35 35 35 36 37 38 38 39 39 39 39 39 40 40 41 41 41 42 43 44 45 46 47 48 49 49 50 50 50 49 48 47 45 44 42 40 39 38 37 37 37 38 38 39 40 40 41 42 43 44 45 46 47 47 48 48 49 49 49
25 24 23 24 24 25 26 27 28 28 28 28 29 32 33 33 31 29 28 29 31 33 34 35 35 34 35 35 36 37 38 38 38 38 39 39 39 40 40 41 41 42 43 44 45 46 47 48 49 49 49 49 48 47 45 44 42 41 39 38 37 37 37 38 39 39 40 41 42 43 44 44 45 46 47 48 49 49 49 49 49 49 49 49 49
23 23 22 23 23 23 24 25 27 28 28 28 29 32 33 32 30 28 29 31 32 33 33 33 33 34 35 36 37 37 37 37 38 38 38 38 39 39 40 41 42 43 45 46 47 48 49 49 48 47 46 44 43 42 40 39 39 38 38 38 39 40 41 42 42 43 44 45 46 47 48 49 50 50 51 51 51 51 51 50 50 50 50 50 51
21 21 21 20 19 19 20 20 22 22 23 24 25 26 27 27 28 29 30 31 31 32 32 33 33 34 35 35 36 36 36 37 37 37 37 38 39 40 41 43 44 46 47 47 47 47 46 45 43 42 41 40 40 39 39 39 39 40 41 42 43 44 45 46 47 48 49 50 51 52 52 53 53 53 53 52 52 51 51 51 51 52 52 53 54
19 19 18 16 15 15 15 16 17 18 19 20 21 23 25 27 28 29 29 30 30 31 32 33 34 34 34 35 35 35 35 35 36 37 38 39 40 42 44 45 46 46 45 44 43 42 41 41 40 40 40 40 40 41 42 42 43 44 46 46 47 48 49 50 50 51 52 53 53 54 54 54 54 54 53 53 53 53 54 54 55 55 55 55 54
18 17 15 13 13 14 14 14 15 16 18 20 22 23 25 26 27 28 29 30 31 32 32 33 33 33 34 34 34 34 35 35 37 38 40 41 43 44 44 44 43 42 42 41 41 41 41 42 42 42 42 43 44 45 46 47 47 48 48 49 49 50 50 51 52 52 53 53 53 54 54 55 55 55 55 55 56 56 56 56 56 55 55 54 54
16 13 12 12 13 13 14 15 16 17 19 21 22 23 24 25 27 28 29 30 31 31 31 32 32 32 33 33 34 34 36 37 39 40 42 43 43 42 41 41 40 40 40 41 42 42 43 43 44 45 45 46 47 48 49 49 49 50 50 50 51 51 52 52 52 53 53 54 54 55 55 56 56 57 57 57 56 56 56 56 56 56 56 56 56
15 13 13 14 13 14 15 17 18 19 20 21 22 23 24 25 27 28 29 29 30 30 31 31 31 32 32 33 34 36 37 39 40 41 41 40 39 39 39 39 40 41 42 42 43 44 45 46 47 47 48 49 49 49 49 50 50 50 51 51 51 52 52 53 53 54 54 55 55 55 55 55 55 55 56 56 56 56 56 56 56 57 58 59 60
17 17 16 15 14 15 17 18 19 19 20 21 22 23 25 25 26 27 28 28 29 29 30 30 30 31 32 34 35 37 38 39 39 38 38 37 37 38 39 40 41 42 43 44 45 46 47 47 48 48 48 48 48 48 48 49 49 49 50 50 51 51 52 52 53 53 54 54 54 54 54 54 55 55 55 56 56 57 57 57 58 58 59 60 61
19 17 15 14 14 16 18 18 19 19 20 21 23 23 24 25 26 26 27 28 28 28 29 29 30 32 34 35 36 37 37 37 36 36 36 37 38 39 40 42 43 44 44 45 46 46 46 46 46 46 46 46 47 47 48 49 49 50 50 51 51 52 52 53 53 54 54 54 54 54 54 54 55 55 56 57 58 59 59 60 61 61 61 61 61
17 14 14 14 15 17 17 18 19 20 21 22 23 23 24 24 25 25 26 26 26 27 29 30 32 33 34 35 35 35 35 35 35 36 37 38 39 41 42 43 43 44 44 44 44 44 45 45 46 46 47 48 48 49 50 50 51 51 52 52 53 54 54 55 55 55 55 55 55 55 56 57 58 58 59 60 60 61 61 61 61 61 60 59 58
Wind_Direction
232 231 230 230 232 232 232 232 235 240 243 246 249 252 255 261 269 273 270 268 268 269 273 276 278 279 281 283 285 286 286 286 286 286 286 285 283 281 280 280 279 278 277 276 276 276 278 279 280 278 277 277 279 280 281 282 282 282 283 283 283 283 280 276 275 274 272 273 274 273 273 274 275 276 275 276 278 278 277 279 280 279 280 281 280
234 231 228 230 232 233 236 237 240 243 246 250 253 256 259 264 273 278 270 260 258 261 267 272 275 278 282 286 288 289 290 291 292 291 291 291 289 285 282 281 279 277 276 276 275 275 275 276 276 275 275 276 278 281 283 284 284 284 283 282 280 280 280 278 277 275 273 273 273 272 271 270 271 273 275 276 279 280 280 281 280 280 281 281 279
231 228 227 230 232 233 234 237 239 243 246 252 255 257 260 264 271 273 268 262 263 269 275 277 277 280 284 288 290 291 292 293 293 291 291 291 290 287 285 282 280 277 275 275 274 274 275 276 276 277 278 279 280 281 282 281 281 282 283 283 281 279 280 281 281 279 275 272 272 272 271 269 269 272 275 277 279 280 281 281 280 281 281 278 277
227 227 228 230 231 231 232 233 237 242 245 250 252 255 260 265 270 270 269 270 274 278 279 278 278 282 287 290 291 291 291 292 293 292 291 290 290 288 286 284 282 279 276 275 274 274 276 278 279 280 281 281 279 278 277 277 280 282 284 284 283 281 280 281 283 282 279 276 274 273 272 271 270 272 273 276 278 279 279 280 280 281 281 279 278
226 227 229 231 229 229 230 232 234 238 242 245 248 253 258 263 266 268 271 274 276 276 276 277 280 285 289 292 293 292 293 294 294 294 292 291 290 288 287 285 282 279 277 276 276 277 279 280 281 282 283 281 277 273 272 275 280 283 283 283 283 283 283 283 283 283 282 280 275 271 271 271 271 272 273 274 276 277 277 278 278 278 279 278 278
224 226 226 229 229 227 229 231 233 239 244 248 251 254 258 262 265 269 272 274 275 275 275 277 280 284 287 290 292 293 296 297 297 296 294 292 290 290 289 287 283 281 281 282 283 284 284 284 283 283 284 283 280 275 274 276 280 282 282 282 283 284 285 285 285 284 283 283 279 272 270 272 272 272 273 274 276 277 277 277 276 276 278 277 276
223 223 224 227 228 225 226 227 230 238 245 251 256 259 262 265 267 269 271 273 276 278 280 280 280 281 284 288 293 296 298 298 298 296 293 292 292 293 293 292 290 288 288 289 289 289 289 289 288 288 288 288 286 283 282 283 284 285 285 284 284 284 285 285 284 283 282 282 280 274 270 271 273 274 273 275 278 280 280 279 278 278 279 278 276
230 229 229 231 230 226 227 228 231 236 244 252 259 263 266 267 267 269 270 273 277 280 280 279 279 283 287 290 292 294 296 297 297 296 296 298 299 299 298 298 296 294 294 293 292 291 292 294 294 294 294 293 291 289 289 289 290 290 291 291 290 288 287 287 285 284 283 281 279 275 272 272 274 275 277 278 280 282 282 282 280 278 279 280 278
235 236 238 240 240 237 233 232 234 239 245 253 259 263 265 267 269 270 270 272 275 276 277 280 286 291 292 290 291 292 295 296 297 299 301 302 302 301 300 298 296 295 295 296 295 294 295 296 297 297 296 296 296 296 296 296 296 297 297 298 298 297 295 294 291 289 286 283 280 277 276 276 277 277 280 283 283 283 284 285 284 282 281 283 283
234 237 240 243 244 242 238 234 236 242 247 253 260 263 266 269 270 270 270 270 272 275 280 286 291 293 291 289 290 291 293 296 299 302 303 302 302 302 301 299 298 297 297 297 297 297 297 298 299 298 299 300 302 303 302 301 302 303 304 305 306 305 305 303 300 296 291 287 284 281 280 281 282 282 282 284 286 286 287 289 291 290 289 290 289
236 239 244 246 244 244 245 241 241 246 253 258 263 267 270 273 273 270 269 270 274 280 283 286 289 291 291 290 290 291 293 297 300 302 302 302 303 304 303 302 302 302 303 303 302 301 301 300 300 301 303 305 307 308 309 310 310 310 311 312 312 311 310 310 309 305 300 294 290 288 286 285 287 288 287 288 291 292 292 293 296 298 299 300 299
242 242 246 248 247 247 251 252 251 252 257 261 264 267 269 272 273 272 273 276 280 282 283 285 288 290 289 289 291 293 295 298 300 301 301 302 303 304 305 305 305 305 306 306 306 305 305 305 307 308 308 309 311 312 314 314 314 314 314 314 314 313 314 314 314 312 309 305 300 297 295 294 296 297 297 297 297 296 295 296 298 300 302 303 302
245 246 247 247 247 248 252 255 254 253 256 257 259 261 265 269 271 272 275 277 278 281 282 284 285 285 286 289 293 295 297 298 300 301 302 304 305 306 307 308 308 306 306 307 308 309 311 312 313 313 312 313 313 314 313 312 312 311 311 310 311 311 312 313 313 312 310 308 305 304 302 301 301 301 301 301 299 297 297 297 297 298 299 299 299
242 243 245 246 248 251 252 253 250 249 251 253 254 258 265 272 272 269 269 271 274 279 281 281 281 282 285 289 293 296 297 297 298 300 303 306 307 309 310 308 307 307 308 310 310 311 313 314 314 314 314 315 314 313 313 312 311 311 310 311 311 311 310 308 308 307 306 306 305 304 303 302 300 300 300 300 299 299 298 297 296 296 295 295 294
240 241 244 246 248 249 248 249 250 249 250 252 255 258 262 269 268 264 264 269 273 276 276 277 281 283 285 288 290 293 294 294 296 300 304 308 310 311 309 307 308 311 311 310 310 312 314 316 316 315 315 314 314 313 313 314 313 313 313 313 314 314 313 311 309 308 306 305 303 302 301 301 300 299 299 299 298 298 297 296 295 294 294 293 292
239 239 241 243 245 245 245 248 251 250 248 250 253 255 258 263 266 267 269 271 271 271 271 273 277 279 280 284 287 290 293 297 303 307 309 311 311 309 310 311 312 310 308 308 311 314 316 316 315 313 312 311 310 309 309 310 310 310 311 311 311 310 309 309 308 308 306 305 304 302 301 301 300 299 298 298 297 296 296 295 295 295 294 294 294
244 241 239 239 240 242 244 246 248 246 244 244 246 252 260 268 272 272 270 267 264 264 266 269 273 277 282 289 293 296 300 304 309 311 310 309 308 307 308 308 306 305 307 311 314 314 314 313 311 309 308 307 306 306 306 306 307 307 307 306 305 304 303 303 302 302 302 301 301 301 300 299 298 296 295 294 294 293 293 293 293 293 293 293 293
249 243 240 237 236 237 236 237 237 237 239 244 251 261 269 271 269 264 260 258 258 260 264 268 276 285 293 299 301 301 303 305 306 306 305 305 304 304 303 303 304 307 309 311 310 309 308 306 305 304 303 302 302 302 303 303 304 304 303 303 302 301 301 300 299 299 298 298 297 296 295 294 292 291 290 289 289 290 290 290 290 290 290 290 290
247 242 236 232 230 228 226 226 230 236 242 249 258 268 270 264 257 252 252 254 257 261 266 274 283 292 297 300 300 300 300 301 301 301 301 301 300 300 301 302 304 305 305 304 303 302 300 299 298 297 297 297 297 298 299 299 300 300 300 299 300 300 299 298 298 297 296 295 294 292 291 290 288 287 287 287 287 288 288 287 287 287 287 287 287
241 235 228 223 221 221 223 230 241 246 248 254 262 266 263 255 251 250 253 257 261 265 272 278 283 288 291 292 293 294 294 294 294 294 294 294 295 297 299 300 301 302 301 301 299 297 295 294 293 293 293 293 294 295 295 296 296 296 296 296 296 296 296 295 295 295 295 294 293 292 291 290 289 288 288 287 287 287 286 286 285 285 285 285 284
215 215 215 213 214 221 231 243 252 251 249 255 260 259 255 253 253 256 258 261 263 266 271 275 277 281 283 284 285 286 287 287 286 287 289 292 296 299 301 302 303 303 303 302 300 298 295 294 292 291 291 291 292 292 292 292 292 292 293 294 294 293 293 293 293 293 293 293 293 293 293 292 291 290 289 289 288 287 286 286 286 285 285 284 283
190 191 197 206 214 225 237 244 247 245 246 251 252 251 252 254 257 260 261 263 265 267 271 276 279 281 281 281 282 283 284 286 287 291 295 299 302 303 304 305 305 305 304 303 302 301 300 299 298 297 297 296 296 295 294 294 293 292 292 292 292 291 291 291 291 291 292 292 293 293 293 291 291 290 290 289 288 287 286 286 285 285 285 284 283
194 190 190 199 210 220 229 235 237 240 244 246 247 249 252 254 256 258 261 265 268 273 278 281 282 283 283 284 285 287 289 292 294 297 300 301 303 303 304 304 304 304 303 303 303 303 302 302 302 301 301 301 300 299 298 297 295 294 293 292 291 290 289 289 289 290 290 291 292 292 292 291 290 290 290 290 289 288 287 286 286 285 285 284 283
207 200 195 198 204 213 222 230 237 242 243 244 246 248 250 251 255 259 262 266 269 273 276 279 279 280 281 283 286 288 291 293 295 296 298 300 301 302 303 303 303 303 303 303 303 303 302 301 301 300 300 299 298 297 296 295 294 293 292 292 291 291 290 290 290 290 291 291 292 292 293 293 293 293 293 293 293 292 290 289 288 287 286 285 284
225 221 214 208 208 216 228 237 243 245 245 245 246 248 250 253 259 263 266 269 272 273 276 277 277 278 280 282 285 287 289 291 294 296 299 300 302 302 303 304 304 304 303 303 302 301 301 300 300 299 298 297 296 295 294 293 292 292 292 292 292 292 292 292 292 292 292 292 292 292 293 293 293 294 294 295 295 294 293 291 290 289 288 288 287
239 239 238 230 222 221 228 238 245 248 249 251 251 252 255 259 264 268 271 274 276 277 278 278 279 281 284 287 289 291 292 294 297 299 301 302 303 304 304 305 305 305 304 303 301 301 300 299 299 298 298 297 297 296 296 295 295 295 295 294 294 294 293 293 293 294 294 294 293 293 293 293 293 293 293 294 293 292 291 291 291 291 290 290 289
251 248 247 244 239 233 230 235 243 247 251 255 255 255 259 263 266 269 273 275 277 277 277 278 280 283 286 289 292 294 296 297 299 300 302 303 303 304 304 304 305 305 303 301 300 299 299 299 300 300 300 300 300 300 300 300 300 299 298 297 296 296 295 295 295 295 295 294 294 293 293 293 293 293 292 292 292 291 290 291 291 291 290 290 289
264 260 254 249 246 242 237 237 244 250 253 254 256 258 262 265 268 272 274 276 277 277 278 279 281 284 287 290 292 295 297 298 300 300 301 301 301 301 302 303 303 303 301 299 299 299 300 300 301 302 302 302 302 303 303 303 303 302 302 300 300 299 298 297 296 296 296 295 295 294 294 293 293 293 293 292 292 291 291 291 291 290 290 290 290
269 267 262 256 250 245 242 241 247 253 255 255 258 262 265 269 273 277 279 280 281 281 283 285 287 289 292 293 294 296 297 298 299 300 300 300 301 301 302 302 302 302 301 301 301 302 302 303 303 303 304 304 305 305 305 304 304 303 302 302 301 300 299 298 298 298 297 296 295 295 295 294 294 294 293 293 293 292 292 292 291 291 290 290 290
272 268 261 253 246 242 239 239 244 252 256 257 259 263 268 273 277 280 282 283 284 286 288 291 294 296 297 297 297 297 297 298 299 300 301 302 303 303 304 304 304 304 304 304 305 305 305 305 306 306 306 306 306 305 304 304 303 302 302 301 300 300 299 299 298 297 296 295 294 294 293 293 293 293 293 293 293 292 292 292 291 291 291 290 290
275 264 251 242 238 236 234 232 236 244 251 255 259 264 270 275 278 281 283 285 287 290 292 295 298 298 298 298 297 297 298 299 301 302 304 305 305 305 305 305 305 306 306 306 306 306 306 306 306 306 305 305 305 304 303 303 302 301 301 300 300 300 299 299 299 298 296 295 294 293 293 293 292 292 292 292 292 292 292 292 291 291 291 290 290
273 259 248 235 228 227 227 226 229 236 244 252 258 264 269 274 278 282 286 289 290 293 295 297 298 298 298 299 300 300 301 303 304 305 305 305 306 305 305 305 305 305 305 305 305 305 305 305 305 304 304 303 303 302 302 301 301 301 300 300 300 300 299 299 299 298 298 297 296 295 295 294 293 293 293 293 293 292 292 292 292 291 291 290 289
274 265 255 242 231 227 226 225 227 233 240 248 256 262 267 273 279 284 289 291 292 293 295 295 295 297 300 303 304 305 305 304 304 303 303 304 304 305 305 305 305 304 304 304 305 305 304 304 304 304 303 303 302 301 301 301 300 300 300 300 300 299 299 299 299 298 298 298 297 297 296 295 295 294 293 293 293 292 292 292 292 291 291 290 289
282 269 252 241 234 228 225 226 229 234 240 247 254 261 267 273 280 285 288 290 292 293 293 291 291 294 300 304 304 304 303 303 302 302 303 303 304 305 305 305 304 304 304 304 304 304 304 304 304 303 302 302 301 301 300 300 300 300 300 300 299 299 299 298 298 298 298 297 297 296 296 296 295 295 294 294 293 293 293 292 292 291 291 291 290
281 269 251 243 237 231 230 232 235 237 242 246 252 259 266 272 278 282 285 287 290 292 291 290 292 295 299 301 301 301 301 301 302 302 303 303 304 304 304 304 303 303 303 303 303 303 302 302 301 301 300 300 300 300 300 300 300 300 300 299 299 298 298 297 297 296 296 296 295 295 295 295 295 295 295 295 295 294 294 293 292 292 292 291 291
268 271 265 258 250 243 241 242 242 243 246 249 254 260 265 270 273 276 279 283 287 289 289 290 292 295 297 298 298 299 299 300 300 301 302 303 304 304 304 303 303 303 303 303 303 302 302 302 302 302 302 301 301 301 301 300 300 300 299 299 298 297 297 297 296 296 295 295 295 296 296 296 296 296 296 295 295 295 294 294 293 293 293 292 292
254 262 267 263 255 249 246 248 251 254 255 256 260 263 265 267 269 272 275 280 283 285 287 290 292 295 296 296 297 298 298 299 300 302 303 304 304 304 303 303 303 303 303 304 304 304 304 304 304 303 303 303 302 302 301 300 300 299 298 298 297 297 296 296 296 296 296 297 297 297 297 297 296 296 296 296 296 296 295 295 295 295 295 294 294
245 246 253 254 250 247 247 250 255 258 259 261 264 265 265 266 268 270 273 277 280 283 286 289 292 294 296 297 298 299 300 301 303 304 304 304 303 303 303 303 304 304 304 304 304 304 304 304 303 303 303 302 302 301 301 300 300 299 299 298 298 298 298 298 298 298 298 298 297 297 297 297 297 297 297 297 297 297 297 297 296 296 295 295 294
241 240 245 247 245 244 245 248 252 257 262 266 267 265 264 265 268 271 273 276 279 283 287 290 292 293 294 296 298 300 302 303 304 303 303 302 302 303 304 304 304 304 304 303 303 303 303 303 303 303 302 301 301 301 300 300 299 299 299 298 298 298 298 298 298 298 298 298 298 299 299 299 300 299 299 299 298 298 297 297 296 296 295 295 294
241 241 245 249 250 248 248 250 256 262 267 269 265 260 260 265 272 275 275 277 281 285 288 290 291 292 294 297 299 301 302 302 302 302 302 303 304 304 304 304 304 304 304 304 304 304 304 303 302 302 301 300 299 299 298 297 297 297 297 297 297 296 296 296 296 297 297 298 299 299 299 299 299 298 298 297 297 296 296 296 295 295 294 294 293
243 240 244 249 254 256 256 257 260 262 265 264 259 254 258 271 280 279 278 280 284 286 288 289 291 294 297 299 301 302 303 303 303 304 305 305 306 306 305 305 305 305 305 304 304 303 302 302 301 300 300 299 299 299 299 299 299 300 300 300 300 300 300 300 301 301 301 300 300 299 298 298 297 297 296 296 296 295 295 295 295 294 294 293 293
243 240 245 253 260 263 264 263 263 262 261 261 257 254 260 273 283 284 281 283 286 288 290 292 295 297 300 302 303 304 305 305 306 306 306 306 306 306 305 305 305 304 304 303 303 302 302 302 302 302 303 303 304 304 305 305 305 305 306 306 306 306 305 305 304 303 302 301 300 300 299 298 298 297 297 297 297 296 296 296 295 295 294 294 294
240 240 249 259 264 264 264 263 263 262 261 261 260 260 264 274 283 285 284 286 288 290 292 294 297 300 303 304 305 305 305 305 305 305 305 305 305 304 304 304 304 304 304 304 305 305 305 306 306 307 308 308 309 309 309 309 308 308 308 308 307 306 305 304 303 302 301 301 300 300 299 299 299 299 298 298 298 297 297 296 296 295 295 295 294
238 243 251 257 260 261 262 263 262 262 262 263 265 267 271 277 282 283 285 287 289 291 294 297 300 302 303 303 303 303 303 304 304 304 304 304 304 304 304 305 305 306 307 307 308 308 309 310 310 311 311 311 311 310 309 309 308 307 307 306 305 304 303 303 302 302 302 301 301 301 300 300 299 299 299 298 298 297 297 296 295 295 295 294 294
236 240 242 244 252 260 264 265 266 265 266 268 271 273 276 280 282 284 286 289 291 294 297 300 301 301 301 302 302 303 303 303 303 303 304 304 305 306 307 307 308 309 309 310 311 312 312 313 313 312 312 311 310 309 308 307 306 306 305 305 304 304 303 303 302 302 301 301 301 300 300 300 300 299 299 298 298 297 296 296 295 295 294 294 293
228 226 227 237 253 263 265 266 267 268 270 272 275 278 280 282 285 287 290 292 295 297 299 300 300 301 302 302 303 303 303 303 304 304 305 306 307 308 309 310 311 312 313 313 313 313 313 312 311 310 309 308 307 306 306 305 305 305 304 304 304 303 303 302 302 301 301 301 301 301 300 300 300 299 298 298 297 297 296 296 296 295 295 294 293
217 218 228 243 254 260 264 266 268 271 274 277 279 282 284 286 288 291 293 295 297 298 299 301 302 302 302 302 302 303 304 305 306 307 308 309 310 311 312 313 313 313 313 313 312 311 310 309 308 307 306 306 306 306 306 306 305 305 305 305 304 304 304 303 303 303 303 302 302 302 301 300 300 299 299 298 298 298 298 297 297 297 296 296 295
215 223 232 237 242 251 260 267 271 276 280 282 284 285 287 289 291 293 295 297 298 300 301 301 301 301 301 302 303 304 306 307 308 309 311 311 312 313 313 313 313 312 311 310 310 309 308 307 307 307 307 307 307 307 307 307 307 307 307 307 306 306 305 305 305 304 304 304 303 302 302 301 300 300 299 299 298 298 298 297 297 297 296 296 296
220 222 225 232 243 254 264 271 276 280 282 284 285 287 289 292 294 295 297 298 299 300 300 300 300 301 302 304 305 306 308 309 310 311 312 312 312 312 312 311 311 310 309 309 308 308 308 308 308 308 308 308 308 308 308 308 308 307 307 307 306 306 306 306 305 305 304 304 304 303 302 302 301 300 299 299 298 298 297 297 296 296 296 296 296
222 226 233 244 255 263 268 273 278 280 283 286 288 290 292 294 295 296 297 298 298 298 299 300 302 303 304 305 307 308 309 310 310 311 311 311 311 311 310 310 309 309 309 309 309 309 309 309 309 309 309 309 309 309 309 309 309 309 309 308 308 308 308 307 307 306 305 305 304 304 303 302 302 301 300 300 299 299 298 298 297 296 296 296 296
227 236 248 257 263 268 273 277 280 283 286 288 289 291 293 294 295 296 296 297 297 299 300 302 303 305 306 307 308 309 309 310 310 310 310 310 310 310 309 310 310 310 310 311 311 311 311 311 311 311 311 312 312 312 312 312 312 312 312 311 311 311 310 309 309 308 307 307 306 305 304 303 302 302 301 300 300 299 299 298 297 297 297 296 296
Height
5915 5916 5916 5917 5917 5918 5919 5920 5920 5921 5921 5922 5923 5923 5924 5925 5927 5928 5929 5928 5927 5926 5927 5928 5928 5927 5927 5926 5926 5926 5925 5925 5925 5925 5924 5924 5924 5923 5923 5923 5922 5922 5921 5921 5920 5920 5919 5918 5918 5917 5917 5917 5917 5916 5916 5915 5914 5914 5914 5913 5912 5912 5910 5909 5910 5911 5909 5907 5906 5905 5904 5904 5903 5901 5900 5899 5898 5898 5897 5896 5895 5895 5895 5895 5895
5914 5914 5914 5915 5916 5917 5917 5918 5918 5919 5919 5920 5921 5922 5922 5924 5926 5927 5927 5925 5924 5925 5926 5926 5926 5925 5925 5924 5924 5923 5923 5922 5922 5922 5921 5921 5920 5920 5919 5919 5918 5917 5917 5916 5916 5916 5916 5915 5914 5913 5913 5913 5913 5913 5912 5911 5910 5910 5909 5907 5907 5907 5905 5904 5905 5907 5907 5904 5902 5901 5901 5900 5899 5897 5896 5895 5894 5893 5893 5892 5891 5891 5891 5891 5890
5912 5912 5912 5913 5914 5915 5915 5916 5916 5916 5917 5917 5918 5919 5920 5922 5924 5924 5923 5922 5922 5924 5924 5924 5924 5923 5923 5923 5922 5921 5920 5920 5919 5919 5918 5917 5916 5916 5915 5915 5914 5913 5912 5912 5912 5911 5911 5911 5911 5910 5910 5910 5909 5908 5908 5907 5906 5905 5904 5902 5902 5903 5901 5900 5901 5902 5902 5900 5898 5897 5897 5896 5895 5894 5892 5891 5890 5889 5888 5887 5887 5886 5886 5886 5885
5909 5909 5910 5911 5911 5912 5913 5913 5914 5914 5914 5914 5915 5916 5918 5920 5921 5921 5920 5920 5921 5921 5921 5921 5921 5921 5921 5920 5920 5919 5918 5917 5916 5915 5915 5914 5913 5912 5911 5910 5910 5909 5908 5907 5907 5907 5907 5907 5906 5906 5906 5906 5905 5903 5903 5902 5901 5900 5900 5898 5898 5898 5897 5896 5896 5896 5896 5896 5895 5893 5892 5892 5891 5890 5889 5887 5886 5885 5884 5883 5882 5882 5881 5881 5880
5907 5907 5908 5908 5908 5909 5910 5911 5911 5911 5911 5912 5913 5915 5916 5918 5918 5918 5917 5918 5919 5919 5918 5918 5918 5918 5917 5917 5917 5916 5915 5914 5913 5912 5911 5910 5909 5908 5908 5907 5906 5905 5904 5903 5903 5902 5902 5903 5903 5902 5901 5901 5899 5898 5898 5898 5898 5897 5896 5894 5893 5893 5893 5892 5892 5891 5891 5891 5890 5889 5887 5886 5886 5885 5884 5883 5882 5881 5880 5879 5878 5878 5877 5876 5876
5903 5903 5903 5903 5904 5906 5908 5909 5909 5909 5909 5911 5912 5914 5915 5916 5916 5915 5915 5916 5916 5916 5916 5916 5916 5915 5914 5914 5914 5913 5912 5911 5910 5909 5908 5907 5906 5904 5904 5903 5902 5901 5901 5900 5900 5899 5899 5898 5898 5897 5896 5895 5894 5894 5894 5894 5893 5892 5891 5890 5889 5889 5888 5888 5887 5887 5886 5885 5885 5884 5882 5881 5880 5880 5879 5879 5878 5877 5876 5875 5874 5873 5872 5871 5871
5899 5899 5899 5900 5902 5905 5906 5906 5907 5907 5908 5909 5911 5912 5913 5914 5913 5913 5914 5913 5914 5914 5913 5913 5913 5912 5912 5911 5911 5910 5910 5909 5908 5907 5906 5904 5903 5902 5901 5900 5899 5898 5898 5897 5896 5896 5895 5894 5893 5893 5892 5891 5891 5890 5890 5890 5889 5888 5887 5886 5885 5885 5884 5883 5882 5882 5881 5880 5879 5879 5878 5876 5875 5875 5875 5874 5874 5873 5871 5870 5870 5869 5867 5866 5866
5897 5899 5899 5900 5901 5903 5904 5904 5905 5905 5906 5907 5909 5910 5911 5911 5911 5911 5911 5911 5911 5911 5911 5910 5910 5910 5910 5909 5908 5908 5907 5907 5906 5905 5904 5903 5902 5900 5899 5898 5897 5896 5895 5894 5894 5893 5892 5891 5890 5890 5889 5888 5887 5887 5886 5886 5885 5884 5883 5882 5881 5880 5879 5878 5877 5876 5876 5875 5874 5874 5874 5873 5872 5871 5870 5870 5870 5869 5866 5865 5865 5865 5862 5861 5861
5896 5898 5899 5900 5901 5903 5903 5904 5904 5904 5904 5905 5906 5907 5907 5908 5908 5908 5908 5908 5909 5908 5908 5908 5908 5908 5907 5907 5906 5906 5905 5905 5904 5903 5902 5901 5900 5899 5897 5896 5895 5894 5893 5892 5891 5890 5890 5889 5888 5888 5887 5886 5885 5884 5884 5883 5882 5881 5880 5879 5878 5877 5876 5874 5873 5872 5871 5871 5870 5870 5870 5869 5868 5868 5867 5866 5866 5864 5862 5861 5860 5860 5858 5857 5856
5895 5896 5897 5898 5900 5902 5903 5903 5903 5902 5903 5903 5904 5904 5905 5905 5905 5905 5905 5906 5906 5906 5906 5906 5906 5906 5905 5905 5905 5904 5904 5903 5902 5902 5901 5899 5898 5897 5895 5894 5893 5892 5891 5890 5889 5888 5887 5887 5886 5885 5884 5883 5883 5882 5881 5881 5880 5879 5878 5876 5875 5874 5872 5871 5870 5869 5868 5867 5867 5867 5866 5865 5865 5865 5864 5863 5861 5860 5859 5857 5856 5855 5855 5854 5852
5894 5896 5896 5896 5898 5899 5900 5900 5901 5901 5901 5902 5902 5902 5903 5903 5903 5903 5903 5903 5904 5904 5904 5904 5904 5904 5903 5903 5903 5902 5901 5901 5900 5900 5898 5897 5896 5895 5894 5892 5891 5890 5889 5888 5887 5887 5886 5885 5885 5884 5882 5882 5881 5880 5879 5878 5878 5876 5875 5874 5873 5872 5870 5869 5868 5867 5866 5865 5864 5864 5863 5862 5862 5861 5861 5860 5858 5857 5856 5855 5854 5853 5852 5851 5849
5894 5895 5895 5895 5896 5897 5897 5898 5899 5899 5900 5901 5901 5901 5901 5901 5902 5901 5901 5901 5902 5902 5902 5903 5902 5901 5901 5900 5900 5899 5899 5898 5898 5897 5896 5895 5894 5893 5892 5891 5890 5889 5888 5887 5887 5886 5885 5884 5883 5882 5881 5880 5879 5878 5877 5876 5875 5874 5873 5872 5871 5870 5869 5867 5866 5865 5864 5863 5862 5862 5861 5860 5859 5858 5857 5857 5856 5855 5854 5853 5851 5850 5849 5848 5847
5893 5893 5894 5894 5895 5896 5896 5897 5897 5897 5898 5899 5899 5900 5900 5900 5900 5900 5900 5900 5900 5900 5900 5901 5900 5899 5898 5898 5897 5897 5896 5895 5895 5894 5893 5893 5892 5892 5891 5890 5889 5888 5887 5886 5886 5885 5884 5883 5881 5880 5879 5878 5877 5876 5875 5875 5874 5873 5872 5871 5870 5869 5867 5866 5865 5864 5862 5861 5860 5860 5859 5858 5857 5855 5854 5854 5853 5853 5852 5850 5849 5847 5846 5845 5844
5891 5891 5891 5892 5893 5894 5895 5895 5895 5896 5897 5898 5898 5899 5899 5899 5899 5899 5898 5898 5898 5898 5898 5898 5898 5897 5896 5896 5895 5894 5894 5893 5893 5892 5891 5891 5890 5889 5889 5888 5887 5886 5885 5884 5884 5883 5882 5881 5879 5878 5876 5876 5875 5874 5874 5873 5872 5871 5870 5869 5868 5866 5865 5864 5863 5862 5861 5860 5858 5857 5856 5855 5854 5853 5852 5851 5850 5849 5848 5847 5845 5844 5843 5842 5841
5889 5889 5889 5890 5891 5892 5892 5893 5893 5895 5896 5896 5897 5897 5898 5897 5897 5897 5896 5896 5896 5896 5896 5896 5896 5895 5895 5894 5893 5892 5892 5892 5891 5891 5890 5889 5888 5887 5887 5886 5885 5884 5883 5882 5881 5880 5879 5878 5877 5876 5874 5874 5873 5872 5872 5871 5870 5869 5868 5867 5865 5864 5863 5861 5860 5859 5858 5857 5856 5855 5853 5852 5851 5850 5849 5847 5846 5846 5845 5844 5842 5841 5839 5838 5837
5886 5887 5887 5888 5889 5890 5890 5891 5892 5893 5894 5895 5895 5896 5896 5895 5895 5895 5894 5894 5894 5894 5894 5893 5893 5893 5893 5892 5892 5891 5891 5890 5890 5889 5888 5887 5886 5886 5885 5884 5883 5882 5882 5880 5879 5878 5877 5876 5875 5874 5873 5872 5871 5870 5870 5869 5868 5867 5866 5865 5863 5862 5860 5859 5858 5857 5856 5854 5853 5852 5851 5849 5848 5847 5846 5844 5843 5842 5841 5840 5839 5838 5836 5835 5834
5884 5885 5885 5886 5887 5888 5889 5890 5890 5891 5892 5893 5893 5893 5893 5893 5892 5892 5892 5892 5892 5892 5892 5891 5891 5891 5891 5891 5890 5890 5890 5889 5888 5887 5886 5885 5885 5884 5884 5883 5882 5881 5880 5879 5877 5876 5875 5874 5873 5871 5871 5870 5869 5868 5867 5866 5866 5865 5863 5862 5861 5860 5859 5857 5856 5854 5853 5852 5850 5849 5847 5846 5845 5844 5842 5841 5840 5839 5838 5837 5836 5834 5833 5832 5831
5882 5883 5883 5884 5885 5886 5887 5888 5888 5889 5889 5890 5890 5890 5890 5890 5890 5890 5890 5890 5891 5890 5890 5890 5889 5889 5889 5889 5889 5889 5888 5887 5886 5885 5884 5884 5883 5883 5882 5882 5881 5879 5878 5877 5875 5874 5873 5872 5871 5870 5869 5868 5867 5866 5865 5864 5863 5862 5861 5859 5858 5857 5856 5854 5853 5851 5850 5848 5847 5846 5844 5843 5842 5840 5839 5838 5837 5835 5834 5833 5832 5830 5829 5828 5827
5879 5880 5881 5882 5883 5884 5885 5885 5886 5886 5886 5887 5887 5887 5888 5889 5889 5889 5889 5889 5889 5889 5889 5888 5888 5887 5887 5887 5887 5887 5886 5885 5884 5883 5883 5882 5882 5881 5881 5880 5879 5878 5877 5875 5874 5873 5872 5871 5870 5868 5867 5866 5864 5863 5862 5861 5859 5858 5857 5855 5854 5853 5852 5850 5849 5847 5846 5845 5843 5842 5841 5839 5838 5836 5835 5834 5833 5831 5830 5828 5827 5825 5824 5823 5822
5876 5876 5877 5879 5881 5882 5883 5883 5883 5884 5884 5884 5885 5885 5886 5887 5887 5888 5888 5888 5888 5888 5887 5887 5886 5886 5886 5886 5886 5885 5884 5884 5883 5882 5881 5881 5880 5880 5879 5878 5877 5876 5875 5874 5873 5871 5870 5869 5868 5866 5865 5864 5862 5860 5859 5857 5856 5854 5853 5851 5850 5849 5848 5846 5844 5843 5842 5840 5839 5838 5836 5835 5833 5832 5831 5829 5828 5826 5825 5823 5821 5820 5819 5817 5816
5873 5873 5874 5876 5878 5880 5880 5881 5881 5882 5882 5882 5883 5884 5885 5885 5885 5886 5886 5886 5887 5886 5886 5886 5885 5885 5885 5885 5885 5884 5883 5882 5881 5881 5880 5879 5879 5878 5877 5876 5875 5874 5873 5872 5870 5869 5867 5866 5865 5863 5862 5861 5859 5857 5856 5854 5852 5851 5849 5848 5846 5845 5843 5842 5840 5839 5838 5836 5835 5833 5832 5830 5828 5827 5826 5824 5823 5821 5819 5817 5816 5815 5813 5812 5810
5871 5871 5872 5874 5876 5877 5878 5879 5879 5880 5880 5881 5882 5882 5883 5883 5884 5884 5884 5884 5885 5885 5884 5884 5884 5884 5884 5884 5883 5883 5882 5881 5880 5879 5878 5877 5876 5876 5875 5874 5873 5872 5871 5870 5868 5866 5865 5863 5862 5860 5859 5857 5856 5854 5852 5851 5849 5847 5845 5844 5842 5840 5839 5837 5836 5834 5833 5832 5830 5829 5827 5825 5823 5822 5820 5819 5818 5816 5814 5812 5811 5809 5808 5807 5805
5869 5870 5870 5872 5873 5875 5876 5877 5877 5878 5879 5880 5880 5881 5881 5882 5882 5882 5882 5882 5882 5882 5882 5882 5882 5882 5882 5881 5881 5880 5880 5879 5878 5877 5876 5875 5875 5873 5872 5871 5870 5869 5868 5867 5865 5864 5862 5861 5859 5857 5855 5854 5852 5850 5849 5847 5845 5843 5841 5840 5838 5836 5835 5833 5832 5830 5829 5828 5826 5824 5822 5820 5818 5816 5815 5813 5812 5811 5809 5808 5806 5805 5803 5801 5800
5868 5869 5869 5870 5871 5872 5873 5874 5875 5876 5877 5877 5878 5878 5879 5880 5880 5881 5881 5880 5880 5880 5880 5880 5880 5880 5879 5879 5879 5878 5878 5877 5876 5875 5874 5873 5872 5871 5870 5869 5868 5866 5865 5864 5862 5861 5859 5857 5856 5854 5852 5850 5849 5847 5845 5843 5841 5839 5837 5835 5834 5832 5830 5829 5827 5826 5824 5823 5821 5819 5817 5815 5813 5811 5810 5808 5807 5806 5804 5803 5801 5800 5798 5797 5795
5867 5868 5868 5868 5869 5870 5871 5872 5873 5874 5875 5875 5875 5876 5876 5877 5878 5878 5879 5879 5878 5878 5878 5878 5877 5877 5877 5876 5876 5876 5875 5875 5874 5873 5872 5870 5870 5868 5867 5866 5865 5863 5862 5860 5858 5856 5855 5853 5851 5850 5848 5846 5844 5842 5840 5838 5836 5835 5833 5831 5829 5827 5825 5824 5822 5820 5819 5817 5816 5814 5813 5811 5808 5807 5805 5804 5803 5801 5799 5797 5796 5794 5793 5792 5790
5865 5866 5866 5867 5867 5868 5869 5870 5871 5872 5872 5873 5873 5874 5874 5875 5876 5876 5876 5877 5876 5876 5876 5875 5874 5874 5873 5873 5873 5872 5872 5872 5871 5870 5868 5867 5866 5865 5864 5863 5861 5860 5858 5855 5853 5852 5850 5848 5847 5845 5843 5841 5839 5838 5835 5834 5832 5830 5828 5826 5824 5822 5820 5818 5817 5815 5813 5811 5810 5808 5807 5805 5803 5802 5801 5799 5798 5796 5793 5792 5790 5789 5787 5786 5785
5863 5863 5864 5865 5865 5866 5867 5868 5869 5869 5870 5871 5872 5872 5873 5874 5874 5874 5874 5874 5874 5874 5874 5873 5872 5871 5870 5870 5869 5869 5868 5868 5867 5866 5865 5864 5863 5862 5860 5859 5857 5855 5853 5851 5849 5847 5846 5844 5842 5840 5838 5836 5835 5833 5831 5829 5827 5825 5823 5821 5819 5817 5815 5813 5811 5809 5808 5806 5804 5802 5801 5799 5797 5796 5795 5794 5792 5790 5788 5786 5785 5783 5781 5780 5779
5862 5862 5862 5862 5863 5864 5865 5865 5866 5867 5868 5869 5870 5871 5871 5871 5871 5871 5871 5872 5872 5872 5871 5870 5869 5868 5867 5867 5866 5865 5865 5864 5863 5862 5861 5860 5859 5857 5856 5854 5853 5851 5848 5846 5845 5843 5842 5840 5838 5836 5834 5832 5830 5828 5826 5824 5821 5819 5817 5815 5813 5812 5810 5808 5806 5804 5802 5800 5798 5796 5795 5793 5791 5790 5788 5787 5786 5784 5782 5781 5779 5777 5776 5774 5773
5859 5859 5860 5860 5861 5862 5862 5863 5864 5865 5866 5867 5868 5868 5868 5868 5868 5868 5869 5869 5869 5869 5868 5868 5867 5865 5864 5863 5863 5862 5861 5860 5859 5858 5856 5855 5854 5853 5851 5850 5848 5846 5844 5842 5841 5839 5837 5835 5834 5832 5829 5827 5825 5823 5821 5819 5816 5814 5812 5810 5808 5806 5804 5803 5801 5799 5797 5795 5793 5791 5789 5787 5785 5783 5782 5780 5779 5777 5776 5775 5773 5771 5770 5769 5767
5855 5855 5856 5856 5857 5858 5859 5860 5861 5863 5863 5864 5865 5865 5865 5865 5865 5866 5866 5866 5866 5865 5865 5864 5863 5862 5861 5860 5859 5858 5857 5856 5855 5853 5852 5851 5849 5848 5847 5845 5843 5841 5839 5838 5836 5834 5832 5830 5828 5826 5824 5822 5820 5818 5816 5814 5812 5809 5807 5805 5803 5801 5799 5797 5796 5794 5792 5790 5788 5786 5783 5781 5779 5777 5776 5774 5772 5771 5769 5768 5767 5765 5764 5762 5761
5850 5850 5850 5851 5853 5854 5856 5857 5858 5859 5860 5861 5862 5862 5862 5863 5863 5863 5863 5863 5862 5862 5861 5860 5859 5858 5858 5857 5856 5855 5854 5852 5851 5849 5848 5846 5845 5843 5842 5840 5838 5836 5834 5832 5830 5829 5827 5825 5823 5821 5819 5817 5815 5813 5811 5809 5807 5804 5802 5800 5798 5795 5793 5791 5790 5788 5786 5784 5782 5780 5778 5776 5774 5772 5770 5768 5766 5764 5763 5761 5760 5758 5757 5756 5754
5847 5846 5846 5847 5848 5850 5851 5853 5854 5855 5856 5857 5858 5858 5859 5859 5859 5859 5859 5859 5858 5858 5858 5857 5856 5855 5855 5854 5853 5852 5850 5848 5847 5845 5843 5842 5840 5839 5837 5836 5834 5832 5829 5827 5825 5824 5822 5820 5818 5816 5814 5812 5810 5808 5806 5803 5801 5799 5797 5795 5792 5790 5788 5786 5784 5782 5780 5778 5776 5774 5772 5771 5769 5766 5764 5762 5760 5758 5756 5754 5753 5751 5750 5748 5747
5845 5844 5844 5844 5845 5846 5847 5848 5849 5850 5852 5853 5854 5854 5855 5855 5855 5855 5855 5855 5855 5855 5855 5854 5853 5852 5852 5850 5849 5848 5846 5844 5843 5841 5839 5837 5835 5834 5833 5831 5829 5827 5825 5823 5821 5819 5817 5815 5813 5811 5809 5807 5805 5803 5800 5798 5796 5794 5791 5789 5787 5785 5782 5780 5778 5776 5773 5771 5769 5767 5765 5763 5762 5760 5758 5756 5753 5751 5749 5747 5745 5743 5742 5740 5738
5842 5842 5842 5842 5842 5843 5843 5844 5845 5846 5848 5849 5849 5850 5850 5851 5851 5851 5852 5852 5852 5852 5852 5851 5850 5849 5848 5847 5845 5843 5842 5840 5838 5836 5834 5833 5831 5829 5828 5826 5824 5822 5820 5818 5816 5814 5812 5810 5807 5805 5803 5801 5799 5797 5795 5793 5790 5788 5786 5784 5782 5779 5777 5774 5772 5770 5767 5765 5763 5760 5758 5756 5754 5752 5750 5748 5746 5744 5742 5740 5737 5735 5733 5731 5730
5840 5840 5841 5841 5842 5842 5842 5842 5842 5843 5844 5844 5845 5846 5846 5847 5847 5848 5848 5849 5849 5849 5848 5847 5846 5845 5844 5843 5841 5840 5838 5836 5834 5833 5831 5829 5827 5825 5824 5822 5820 5818 5816 5814 5811 5809 5807 5805 5803 5800 5798 5796 5794 5792 5789 5787 5785 5783 5780 5778 5776 5774 5771 5769 5766 5764 5761 5759 5756 5753 5751 5749 5746 5744 5742 5740 5737 5735 5733 5731 5729 5727 5725 5723 5721
5837 5838 5839 5840 5840 5841 5841 5841 5841 5840 5840 5840 5841 5842 5843 5843 5844 5845 5845 5846 5846 5845 5845 5844 5843 5842 5841 5839 5838 5836 5834 5833 5831 5829 5827 5825 5823 5821 5819 5817 5815 5813 5811 5808 5806 5804 5801 5799 5797 5795 5793 5791 5789 5786 5784 5782 5779 5777 5774 5772 5770 5767 5765 5762 5760 5757 5754 5752 5749 5746 5744 5741 5739 5736 5734 5732 5729 5727 5725 5722 5720 5718 5716 5714 5712
5834 5834 5835 5835 5836 5837 5838 5839 5839 5839 5838 5838 5839 5840 5841 5841 5841 5842 5842 5842 5842 5842 5841 5840 5840 5839 5837 5836 5834 5832 5830 5828 5827 5825 5823 5820 5818 5816 5814 5812 5810 5808 5805 5803 5801 5798 5796 5794 5792 5790 5787 5785 5783 5781 5778 5776 5773 5771 5768 5766 5764 5761 5758 5756 5753 5750 5747 5744 5742 5739 5737 5734 5731 5729 5726 5724 5721 5719 5717 5715 5713 5711 5709 5707 5705
5829 5830 5830 5831 5833 5834 5835 5836 5837 5836 5836 5837 5837 5838 5839 5839 5839 5839 5839 5838 5838 5839 5838 5837 5836 5835 5833 5832 5830 5828 5826 5824 5822 5820 5818 5816 5814 5812 5809 5807 5805 5803 5800 5798 5796 5794 5791 5789 5787 5785 5782 5780 5777 5775 5772 5770 5767 5765 5762 5759 5757 5754 5751 5748 5745 5743 5740 5737 5734 5732 5729 5727 5724 5722 5719 5717 5715 5713 5710 5709 5707 5705 5703 5701 5699
5827 5829 5829 5829 5830 5831 5832 5833 5833 5834 5834 5835 5835 5835 5836 5836 5836 5836 5835 5835 5835 5835 5835 5834 5833 5831 5829 5827 5826 5824 5822 5820 5818 5816 5814 5812 5809 5807 5805 5803 5800 5798 5796 5794 5791 5789 5787 5785 5782 5780 5777 5775 5772 5769 5767 5764 5761 5758 5756 5753 5750 5747 5744 5741 5738 5735 5732 5730 5727 5725 5722 5720 5717 5715 5713 5711 5709 5707 5705 5703 5701 5699 5697 5695 5693
5826 5827 5828 5828 5828 5829 5829 5830 5830 5831 5831 5831 5832 5832 5833 5833 5833 5832 5832 5832 5832 5832 5831 5830 5828 5827 5825 5823 5821 5819 5818 5816 5814 5811 5809 5807 5805 5802 5800 5798 5796 5794 5791 5789 5787 5784 5782 5779 5777 5774 5772 5769 5767 5764 5761 5758 5755 5752 5749 5746 5743 5740 5737 5735 5732 5729 5727 5724 5722 5720 5717 5715 5712 5710 5708 5705 5703 5701 5699 5697 5694 5692 5690 5688 5686
5823 5823 5824 5825 5826 5826 5826 5827 5827 5827 5827 5827 5828 5829 5829 5829 5829 5829 5828 5828 5828 5828 5827 5825 5824 5822 5820 5818 5817 5815 5813 5811 5808 5806 5804 5802 5799 5797 5795 5793 5791 5788 5786 5784 5781 5779 5776 5774 5771 5769 5766 5763 5760 5757 5754 5751 5748 5745 5742 5739 5736 5733 5731 5728 5726 5723 5721 5719 5717 5714 5712 5710 5707 5705 5702 5699 5697 5695 5692 5690 5687 5685 5683 5680 5678
5819 5820 5821 5822 5823 5823 5823 5823 5823 5823 5823 5824 5824 5825 5826 5826 5826 5825 5825 5824 5824 5823 5822 5821 5819 5817 5815 5813 5812 5810 5808 5805 5803 5801 5799 5797 5794 5792 5790 5788 5785 5783 5781 5778 5776 5773 5770 5767 5765 5762 5758 5755 5752 5749 5746 5743 5740 5738 5735 5733 5730 5727 5725 5722 5720 5718 5715 5713 5710 5708 5705 5703 5700 5698 5695 5692 5690 5687 5685 5682 5680 5677 5675 5672 5670
5816 5818 5819 5819 5820 5820 5820 5820 5819 5820 5820 5821 5821 5822 5823 5823 5823 5822 5821 5820 5820 5819 5817 5816 5814 5812 5811 5809 5807 5805 5803 5801 5799 5797 5794 5792 5790 5788 5785 5783 5780 5777 5775 5772 5769 5766 5763 5761 5758 5754 5751 5748 5746 5743 5740 5738 5735 5732 5730 5727 5725 5722 5719 5716 5714 5711 5709 5706 5703 5701 5698 5695 5693 5690 5687 5684 5681 5679 5676 5674 5671 5669 5666 5664 5662
5814 5815 5816 5816 5817 5817 5817 5817 5817 5817 5817 5818 5819 5819 5820 5820 5819 5818 5818 5817 5816 5815 5813 5812 5810 5808 5806 5804 5802 5801 5799 5797 5794 5792 5790 5788 5786 5783 5780 5778 5775 5772 5769 5766 5763 5760 5757 5754 5752 5749 5746 5743 5740 5738 5735 5733 5730 5727 5724 5721 5719 5716 5713 5710 5707 5704 5702 5699 5696 5693 5690 5687 5684 5682 5679 5676 5673 5670 5668 5665 5663 5660 5658 5655 5653
5811 5812 5813 5814 5814 5814 5814 5814 5814 5814 5815 5816 5816 5816 5816 5816 5816 5815 5814 5813 5812 5810 5809 5807 5805 5804 5802 5800 5798 5796 5794 5792 5790 5788 5786 5783 5781 5778 5775 5772 5769 5766 5763 5760 5758 5755 5752 5749 5747 5744 5741 5739 5736 5733 5730 5727 5724 5721 5718 5715 5712 5709 5706 5703 5700 5697 5694 5691 5688 5685 5682 5678 5676 5673 5670 5668 5665 5662 5659 5656 5654 5651 5649 5646 5644
5808 5809 5810 5811 5811 5812 5812 5812 5813 5813 5813 5813 5813 5813 5813 5813 5812 5811 5810 5809 5808 5806 5804 5803 5801 5799 5798 5796 5794 5792 5790 5788 5786 5783 5781 5778 5775 5772 5769 5766 5763 5761 5758 5755 5753 5750 5747 5745 5742 5740 5737 5734 5731 5728 5725 5722 5718 5715 5712 5709 5705 5702 5699 5696 5693 5690 5687 5684 5680 5677 5674 5670 5667 5664 5662 5659 5656 5653 5650 5647 5644 5641 5639 5636 5634
5806 5807 5808 5808 5809 5810 5810 5811 5811 5811 5811 5810 5810 5810 5810 5809 5809 5808 5806 5805 5803 5802 5800 5799 5797 5795 5793 5791 5790 5788 5785 5783 5781 5778 5775 5772 5770 5767 5764 5761 5759 5756 5754 5751 5749 5746 5743 5741 5738 5735 5732 5729 5725 5722 5718 5715 5711 5708 5705 5702 5698 5695 5692 5689 5685 5682 5679 5676 5673 5669 5666 5662 5658 5655 5652 5649 5647 5644 5640 5637 5634 5631 5628 5626 5623
5804 5805 5806 5806 5807 5808 5808 5808 5808 5808 5807 5807 5807 5807 5806 5806 5805 5804 5802 5801 5799 5798 5796 5795 5793 5791 5790 5788 5786 5783 5781 5778 5776 5773 5770 5768 5765 5763 5760 5758 5755 5753 5750 5748 5745 5742 5739 5736 5732 5729 5726 5722 5719 5715 5712 5708 5704 5701 5697 5694 5691 5688 5684 5681 5677 5674 5671 5667 5664 5661 5657 5653 5650 5647 5643 5640 5637 5634 5631 5629 5626 5622 5619 5616 5613
5801 5802 5803 5804 5804 5805 5805 5805 5805 5805 5805 5805 5804 5804 5803 5802 5801 5800 5798 5797 5796 5794 5793 5791 5790 5788 5786 5784 5781 5779 5776 5774 5771 5769 5766 5764 5762 5759 5757 5754 5752 5749 5746 5743 5740 5737 5733 5730 5726 5723 5719 5716 5712 5709 5705 5702 5698 5695 5691 5688 5684 5681 5678 5674 5670 5667 5663 5660 5657 5653 5649 5645 5642 5638 5635 5631 5628 5625 5622 5620 5617 5613 5610 5607 5604
5799 5800 5801 5801 5802 5802 5803 5803 5803 5802 5802 5802 5801 5801 5799 5798 5797 5796 5795 5793 5792 5791 5789 5788 5786 5784 5782 5779 5777 5775 5772 5770 5768 5765 5763 5761 5758 5756 5753 5750 5747 5744 5741 5738 5734 5731 5727 5724 5720 5717 5714 5710 5706 5703 5699 5695 5692 5688 5684 5680 5677 5674 5670 5667 5663 5659 5656 5652 5649 5645 5642 5638 5634 5630 5626 5623 5619 5616 5613 5610 5607 5604 5601 5598 5594
5797 5798 5798 5799 5799 5800 5800 5800 5800 5800 5799 5799 5798 5797 5796 5795 5794 5792 5791 5790 5789 5787 5785 5784 5782 5780 5777 5775 5773 5771 5768 5766 5764 5762 5760 5757 5755 5752 5749 5746 5742 5739 5736 5732 5729 5725 5722 5718 5714 5711 5707 5703 5700 5696 5692 5688 5685 5681 5677 5673 5669 5665 5662 5658 5655 5651 5648 5644 5640 5637 5633 5629 5626 5622 5618 5614 5610 5606 5603 5600 5597 5594 5591 5588 5585